Temp
54 55 55 54 55 54 53 54 48 42 42 44 45 49 48 47 49 48 47 54 56 55 53 53 52 51 51 51 51 51 51 51 51 52 52 52 53 53
54 54 54 54 53 53 52 54 51 48 43 46 47 47 48 51 50 47 48 51 54 53 52 51 51 50 49 49 49 50 50 50 50 50 51 51 51 52
54 54 53 54 52 52 51 51 51 50 44 43 47 49 44 45 46 44 45 44 47 52 51 50 50 49 49 48 48 48 48 48 48 49 49 50 50 51
54 53 54 56 52 51 50 50 49 50 46 40 42 45 46 44 45 44 48 49 44 50 50 50 50 49 48 48 47 47 46 46 46 46 47 48 49 49
53 55 54 51 49 48 50 49 49 49 45 42 41 45 45 46 45 45 44 43 47 49 49 49 49 48 47 47 46 45 44 44 45 45 46 46 46 47
51 50 51 51 50 49 49 48 47 46 44 42 41 42 44 43 43 41 40 41 41 46 47 46 47 47 47 46 45 44 43 44 44 45 45 45 45 45
48 49 49 48 48 50 48 46 45 43 42 40 39 40 39 40 40 41 37 37 39 41 40 38 37 39 38 43 43 44 43 43 44 44 44 44 44 44
47 46 47 46 47 49 48 48 47 43 42 41 41 40 40 41 40 37 36 36 34 38 34 34 37 35 35 34 43 44 43 42 43 43 43 43 43 43
48 46 45 46 46 46 48 47 47 48 48 46 42 42 39 40 41 39 37 37 34 35 36 33 35 33 35 40 44 44 42 42 42 43 43 43 43 43
46 45 44 43 44 44 43 42 42 43 44 46 45 43 43 44 43 40 38 35 35 35 35 31 33 32 32 33 42 42 41 42 43 43 43 43 42 42
43 43 43 42 44 45 40 38 38 40 45 46 45 45 45 45 42 40 35 34 31 32 33 31 30 30 30 29 32 42 41 41 42 42 42 42 42 42
41 42 44 43 45 44 40 38 35 37 38 39 39 40 42 43 43 38 36 33 30 28 32 27 28 27 24 29 30 30 30 38 39 39 39 40 40 35
39 39 42 45 45 44 42 39 38 38 38 35 34 34 35 34 34 34 33 33 28 27 33 28 23 24 23 24 27 28 28 30 30 31 36 37 39 37
38 39 41 44 44 43 41 42 41 39 35 34 33 32 31 31 32 31 31 30 30 31 32 31 18 20 16 20 22 26 27 28 27 29 30 34 36 36
40 40 42 44 43 42 42 42 40 35 34 32 30 30 31 31 30 29 29 29 28 30 32 30 25 24 18 13 17 23 25 26 28 26 29 29 29 30
41 41 42 42 41 39 40 38 35 34 33 31 30 30 30 29 28 27 25 26 24 25 30 29 29 26 16 21 20 21 22 16 24 26 27 28 29 29
38 38 38 36 35 36 33 32 32 33 31 30 29 28 29 28 28 28 24 22 19 20 22 26 29 27 25 22 11 19 19 19 24 24 25 24 26 27
37 36 33 33 33 33 31 31 32 31 30 29 29 29 28 26 25 24 24 21 19 20 20 22 20 19 18 22 28 20 18 17 21 23 23 22 22 26
35 34 33 33 33 32 31 31 29 29 30 29 29 28 27 26 25 23 22 20 19 19 20 21 15 10 8 8 21 31 13 21 22 21 23 22 22 24
33 33 32 32 32 31 30 29 29 29 28 28 28 28 27 26 24 22 22 19 19 18 14 16 14 13 12 15 17 21 29 21 21 20 22 24 27 32
32 32 32 31 31 30 29 29 29 28 28 27 27 26 26 24 24 24 23 26 23 18 18 15 17 29 17 16 14 18 24 31 29 22 23 23 22 22
31 31 31 31 30 29 29 28 28 28 26 26 25 24 23 23 23 23 23 21 21 19 16 14 19 16 14 19 17 18 20 24 28 30 31 30 12 19
30 30 30 29 29 29 29 28 27 26 25 25 24 23 24 24 24 23 23 23 20 15 15 16 17 15 15 15 22 19 18 17 17 21 23 30 33 33
MSLP
1021.23 1021.72 1022.11 1022.48 1022.83 1023.15 1023.71 1024.50 1025.28 1027.00 1027.32 1027.48 1027.69 1027.64 1027.97 1028.57 1028.66 1029.02 1029.46 1029.68 1029.83 1030.19 1030.60 1030.91 1031.17 1031.31 1031.48 1031.61 1031.63 1031.57 1031.52 1031.37 1031.14 1030.85 1030.75 1030.44 1030.00 1029.75
1020.72 1021.26 1021.64 1022.03 1022.51 1022.89 1023.46 1024.03 1024.34 1025.01 1026.34 1026.61 1026.89 1027.37 1027.68 1028.26 1028.64 1029.02 1029.42 1029.64 1029.92 1030.23 1030.59 1030.83 1031.00 1031.26 1031.48 1031.50 1031.54 1031.47 1031.43 1031.41 1031.16 1030.95 1030.81 1030.45 1029.93 1029.58
1020.32 1020.77 1021.24 1021.63 1022.20 1022.68 1023.15 1023.58 1024.10 1024.58 1025.69 1026.58 1026.58 1026.90 1027.84 1028.23 1028.69 1028.95 1029.20 1029.59 1029.80 1029.95 1030.29 1030.56 1030.72 1031.02 1031.41 1031.47 1031.55 1031.30 1031.24 1031.23 1031.22 1031.00 1030.79 1030.32 1029.85 1029.48
1019.78 1020.34 1020.72 1021.16 1021.68 1022.13 1022.69 1023.29 1023.81 1024.24 1024.97 1026.19 1026.75 1026.97 1027.49 1027.96 1028.13 1028.95 1029.18 1029.41 1029.73 1030.00 1030.23 1030.49 1030.50 1030.76 1031.04 1031.12 1031.16 1031.19 1031.22 1031.28 1031.25 1031.00 1030.70 1030.26 1029.82 1029.56
1019.37 1019.79 1020.28 1020.67 1021.45 1021.71 1022.29 1022.96 1023.41 1024.02 1024.60 1025.68 1026.57 1027.07 1027.44 1027.71 1028.00 1028.73 1029.02 1029.34 1029.51 1029.68 1029.92 1030.22 1030.30 1030.91 1031.11 1031.17 1031.09 1031.03 1031.08 1031.11 1030.98 1030.79 1030.54 1030.33 1030.08 1029.68
1018.86 1019.24 1019.64 1020.39 1020.82 1021.27 1022.02 1022.55 1023.07 1023.95 1024.60 1025.49 1026.14 1026.81 1027.27 1027.56 1027.90 1028.53 1029.09 1029.32 1029.42 1029.64 1029.87 1030.16 1030.37 1030.56 1030.72 1030.74 1030.93 1031.06 1031.15 1030.97 1030.73 1030.45 1030.30 1030.15 1029.92 1029.58
1018.78 1019.11 1019.56 1019.88 1020.16 1020.88 1021.45 1022.31 1022.74 1023.65 1024.16 1025.05 1025.78 1026.58 1026.98 1027.37 1027.46 1028.00 1028.94 1029.53 1029.60 1029.80 1029.80 1030.25 1030.53 1030.56 1030.60 1030.63 1030.68 1030.83 1030.86 1030.63 1030.49 1030.25 1030.03 1029.88 1029.68 1029.31
1018.50 1019.30 1019.58 1019.93 1020.24 1020.52 1021.22 1021.81 1022.17 1022.84 1023.48 1024.13 1025.01 1025.57 1025.98 1026.47 1027.21 1027.89 1028.72 1029.35 1029.87 1029.72 1029.82 1030.23 1030.10 1030.47 1030.55 1030.48 1030.41 1030.48 1030.54 1030.37 1030.15 1030.01 1029.85 1029.62 1029.31 1028.87
1018.17 1018.83 1019.54 1019.77 1020.13 1020.68 1020.83 1021.27 1021.69 1021.98 1022.21 1023.01 1023.90 1024.69 1025.64 1025.70 1026.34 1027.50 1028.09 1028.76 1029.02 1029.78 1029.92 1030.19 1030.10 1030.35 1030.24 1030.17 1030.12 1030.02 1030.18 1030.13 1029.94 1029.75 1029.53 1029.24 1028.85 1028.41
1018.03 1018.47 1018.97 1019.52 1019.89 1020.19 1020.78 1021.33 1021.78 1021.96 1022.43 1022.78 1023.33 1023.97 1024.45 1025.29 1025.66 1026.56 1027.29 1028.75 1029.35 1029.82 1029.99 1030.28 1030.21 1030.17 1030.21 1030.16 1029.87 1029.84 1029.95 1029.86 1029.52 1029.32 1029.10 1028.77 1028.40 1027.98
1017.76 1018.24 1018.75 1019.28 1019.76 1020.25 1020.98 1021.58 1022.04 1022.44 1022.57 1023.00 1023.39 1023.78 1024.41 1025.28 1025.86 1026.50 1027.52 1028.67 1029.60 1029.94 1030.15 1030.28 1030.33 1030.40 1030.47 1030.27 1029.90 1029.71 1029.79 1029.58 1029.32 1029.10 1028.84 1028.43 1027.99 1027.51
1017.97 1018.08 1018.66 1019.14 1019.62 1020.38 1020.57 1021.18 1022.28 1022.92 1023.24 1023.61 1024.29 1024.78 1025.31 1025.99 1026.16 1026.56 1027.10 1028.25 1029.15 1029.92 1029.92 1030.36 1030.59 1030.78 1030.85 1030.26 1030.08 1029.93 1029.93 1029.58 1029.48 1029.22 1028.70 1028.18 1027.71 1027.31
1018.05 1018.43 1018.59 1018.98 1019.42 1020.21 1020.60 1021.06 1021.48 1022.57 1023.28 1024.16 1025.17 1026.05 1026.68 1026.86 1026.96 1027.35 1027.65 1028.00 1028.75 1029.52 1029.72 1030.19 1030.79 1031.02 1031.17 1030.87 1030.31 1030.04 1030.00 1029.73 1029.46 1029.00 1028.42 1027.95 1027.38 1026.95
1017.78 1018.19 1018.56 1019.03 1019.58 1020.16 1020.80 1021.28 1021.72 1022.50 1023.56 1024.89 1025.98 1026.42 1027.05 1027.31 1027.67 1028.10 1028.39 1028.66 1028.84 1029.18 1029.70 1029.89 1030.79 1031.12 1031.52 1031.36 1030.90 1030.03 1029.70 1029.51 1029.29 1028.79 1028.21 1027.60 1027.06 1026.48
1017.60 1018.07 1018.63 1019.04 1019.54 1020.24 1020.48 1021.16 1022.00 1022.84 1023.97 1025.21 1026.00 1026.80 1027.31 1027.77 1028.32 1028.75 1028.97 1029.12 1029.31 1029.61 1029.87 1030.12 1030.65 1031.14 1031.34 1031.48 1031.24 1030.63 1030.20 1029.16 1029.06 1028.91 1028.29 1027.67 1026.94 1026.23
1018.00 1018.37 1018.59 1019.04 1019.78 1020.40 1020.81 1021.45 1022.25 1023.13 1024.02 1025.15 1026.22 1027.00 1027.75 1028.28 1028.67 1028.88 1029.25 1029.60 1029.99 1030.15 1030.08 1030.34 1030.63 1030.96 1031.08 1031.04 1031.06 1030.56 1030.50 1030.51 1029.22 1028.83 1028.29 1027.40 1026.58 1025.96
1018.42 1018.61 1018.92 1019.43 1020.03 1020.61 1021.34 1022.15 1022.82 1023.54 1024.42 1025.38 1026.34 1027.15 1027.81 1028.30 1028.74 1029.04 1029.46 1029.75 1030.13 1030.42 1030.56 1030.56 1030.48 1030.56 1030.56 1030.41 1030.56 1030.26 1030.14 1029.83 1029.27 1028.80 1028.28 1027.36 1026.09 1025.33
1018.39 1018.79 1019.14 1019.57 1020.13 1020.81 1021.74 1022.50 1023.10 1023.80 1024.63 1025.48 1026.41 1027.02 1027.61 1028.27 1028.82 1029.28 1029.53 1029.84 1030.38 1030.78 1030.98 1030.76 1030.65 1030.59 1030.52 1029.78 1029.48 1029.84 1029.72 1029.54 1028.94 1028.50 1028.00 1027.23 1025.45 1024.28
1018.54 1019.01 1019.36 1019.68 1020.20 1020.98 1021.83 1022.56 1023.43 1024.24 1024.89 1025.71 1026.41 1026.99 1027.57 1028.27 1028.87 1029.36 1029.73 1030.19 1030.53 1030.84 1030.92 1030.84 1030.88 1031.24 1031.31 1031.09 1029.93 1029.18 1029.58 1029.20 1028.76 1028.01 1027.33 1026.74 1025.68 1023.78
1018.69 1019.19 1019.64 1019.91 1020.41 1021.09 1021.82 1022.74 1023.69 1024.54 1025.25 1025.94 1026.59 1027.13 1027.66 1028.15 1028.76 1029.21 1029.67 1030.24 1030.65 1030.82 1031.08 1031.00 1031.10 1031.26 1031.18 1031.00 1030.70 1029.41 1029.31 1028.99 1028.46 1027.66 1026.59 1025.76 1024.70 1023.12
1018.53 1019.31 1019.88 1020.28 1020.72 1021.21 1021.97 1022.68 1023.52 1024.45 1025.31 1026.10 1026.80 1027.36 1027.84 1028.32 1028.85 1029.25 1029.69 1029.93 1030.35 1030.88 1031.19 1031.25 1030.98 1030.26 1030.73 1030.86 1030.90 1029.74 1028.26 1028.16 1027.78 1027.21 1026.29 1025.40 1023.87 1022.50
1018.29 1019.05 1019.90 1020.51 1021.01 1021.54 1022.04 1022.69 1023.65 1024.50 1025.34 1026.13 1026.90 1027.51 1027.96 1028.38 1028.87 1029.31 1029.70 1030.14 1030.48 1030.81 1031.14 1031.00 1030.81 1030.82 1030.54 1030.64 1030.53 1029.93 1028.85 1027.41 1026.65 1026.21 1025.65 1025.12 1024.65 1023.23
1018.47 1019.03 1019.83 1020.56 1021.17 1021.75 1022.15 1022.77 1023.55 1024.63 1025.41 1026.09 1026.82 1027.56 1028.04 1028.47 1028.90 1029.28 1029.74 1030.02 1030.29 1030.75 1030.84 1031.05 1030.88 1030.68 1030.50 1030.42 1030.16 1029.77 1029.16 1028.26 1027.37 1026.03 1024.36 1024.19 1023.44 1022.64
Wind_Speed
7 8 6 4 4 5 5 8 7 5 7 5 3 5 5 5 7 6 6 7 10 12 9 7 5 3 2 2 4 5 7 9 10 11 13 14 14 15
5 7 5 4 5 5 5 7 3 5 4 4 3 4 5 5 8 6 6 8 12 11 9 7 6 4 2 2 3 6 8 10 11 12 14 14 14 15
6 8 7 7 5 5 4 4 4 3 4 1 3 4 3 7 6 4 6 5 4 11 10 8 7 5 4 3 5 6 8 9 11 13 14 14 14 14
10 9 10 7 8 7 5 6 4 3 4 5 2 3 4 5 7 8 6 5 5 10 10 8 8 7 5 4 4 6 7 9 12 12 13 12 13 15
9 11 10 8 7 6 6 6 5 3 4 4 3 2 2 5 6 4 4 3 5 11 11 9 8 7 5 5 6 5 6 9 11 11 10 11 14 16
7 8 8 9 8 8 7 7 6 5 4 4 2 3 4 3 5 6 5 2 3 4 6 3 8 9 6 6 5 5 7 10 10 9 9 12 15 17
4 4 4 7 11 10 7 6 7 5 5 5 3 3 3 6 10 5 3 2 2 2 3 2 3 3 2 5 4 5 8 10 9 9 12 15 16 17
8 6 6 9 9 14 12 13 11 9 9 7 6 7 9 7 6 5 4 3 3 2 3 3 3 2 2 2 6 7 8 9 8 11 14 15 16 18
8 8 8 6 11 10 13 14 15 17 14 10 10 9 7 10 9 8 4 4 3 2 3 2 2 2 2 2 6 8 7 8 9 14 15 16 17 18
7 8 7 7 9 10 9 7 6 5 6 6 7 7 5 9 10 5 5 5 4 3 2 2 1 2 1 3 8 3 4 8 13 14 16 18 18 18
5 6 7 8 14 18 12 11 9 8 10 12 12 13 15 14 10 8 5 6 2 2 1 2 1 1 2 3 3 1 8 10 12 15 19 19 18 19
4 4 12 11 20 21 13 13 11 9 10 11 10 12 11 11 10 5 7 6 3 2 2 3 1 2 3 2 2 2 4 8 16 17 17 18 19 7
5 4 5 17 22 21 16 10 12 13 15 10 8 6 6 6 5 6 5 4 3 2 3 4 1 2 1 3 2 2 2 6 6 7 14 16 19 19
6 5 6 18 20 19 13 20 24 17 9 8 7 6 6 5 5 5 6 6 5 5 4 4 3 3 2 2 3 3 4 4 3 7 7 14 20 21
4 8 13 17 19 16 20 24 21 9 9 8 7 6 4 5 6 4 5 6 5 4 3 3 3 2 3 3 3 4 8 5 6 3 7 9 10 10
7 7 9 12 13 10 15 14 7 8 8 8 7 6 5 4 4 2 3 2 2 1 2 3 2 2 1 3 3 8 3 3 5 7 8 10 10 9
6 4 6 7 8 8 7 7 7 8 8 8 8 7 6 6 4 3 2 2 3 2 0 1 0 1 3 5 2 5 5 5 6 6 8 10 10 9
4 5 6 7 7 7 8 7 7 10 8 8 7 7 7 6 5 2 2 2 3 1 1 0 2 3 4 4 8 5 2 4 5 7 7 8 12 11
3 5 7 7 7 8 7 8 8 7 9 7 7 7 7 6 8 4 2 2 2 1 0 0 1 3 3 2 3 6 0 5 7 9 7 7 11 15
2 5 5 6 7 8 8 9 9 8 7 7 7 6 6 6 6 5 4 3 2 1 1 2 2 2 2 2 4 4 10 6 6 8 10 9 12 26
6 5 5 6 7 9 9 9 9 8 8 7 6 6 5 5 5 5 4 7 4 1 1 1 3 5 1 2 2 6 7 11 11 7 9 10 10 8
7 7 6 7 8 9 9 9 9 9 8 7 6 5 4 4 5 5 4 3 2 2 1 2 3 2 0 2 5 7 7 9 16 16 15 13 3 8
6 7 7 7 7 8 9 9 10 8 8 7 7 5 5 5 4 3 3 3 2 1 2 1 2 1 2 2 8 6 9 9 5 12 11 17 17 22
Wind_Direction
180 182 176 179 172 157 140 160 143 165 204 214 181 186 164 142 160 148 153 172 160 138 141 144 140 141 123 337 338 333 331 329 328 331 328 328 330 328
175 174 176 168 170 162 160 187 184 144 175 166 178 159 155 149 163 150 161 160 161 161 162 159 163 163 206 267 315 326 332 324 328 326 321 322 324 322
180 183 185 166 169 173 169 170 194 145 119 290 109 158 131 147 164 127 148 148 163 177 178 183 182 192 229 268 312 331 323 322 318 317 315 318 320 323
188 181 192 184 177 172 168 178 170 168 124 147 123 133 165 159 154 151 169 166 161 187 192 201 204 207 225 255 307 320 315 312 312 312 312 318 325 327
187 192 194 169 177 170 169 167 154 135 118 128 139 125 142 163 153 149 168 177 173 183 198 214 222 224 253 288 306 304 308 306 305 307 310 330 326 320
181 178 175 180 177 161 161 158 143 140 119 121 119 152 167 146 149 162 187 177 167 169 200 173 224 224 249 278 280 289 298 307 304 299 313 320 320 315
160 154 162 151 145 163 155 158 147 149 146 156 142 147 166 170 183 165 155 140 196 170 154 213 196 226 254 291 239 271 295 302 296 304 313 316 315 313
189 181 166 159 168 170 173 180 177 173 177 170 172 190 188 182 164 162 141 147 207 229 140 242 168 207 251 212 235 273 295 290 292 312 313 313 313 313
198 187 184 189 175 184 191 194 197 195 181 177 182 187 175 179 159 163 161 163 141 164 120 240 177 211 257 268 295 280 286 279 299 311 309 310 313 315
180 176 178 171 180 164 154 141 133 130 158 182 178 165 157 164 166 160 130 103 79 88 105 201 163 216 279 286 294 208 277 289 304 312 310 312 314 315
151 155 165 169 173 160 142 128 114 96 92 106 115 120 127 132 132 125 122 135 156 164 164 143 345 335 286 283 285 183 331 327 320 321 317 317 318 322
143 153 176 173 174 166 149 143 131 132 122 102 93 83 89 109 106 104 140 156 140 127 181 125 51 49 325 299 335 352 335 338 334 319 320 321 324 315
160 168 177 176 169 172 157 155 147 136 122 106 98 95 94 87 77 72 75 135 126 105 165 106 104 18 124 301 302 292 349 323 306 300 315 319 323 323
173 173 178 180 175 169 151 141 138 125 117 121 129 123 118 108 85 79 78 76 64 101 134 116 140 126 132 302 274 311 318 290 297 314 314 318 315 316
146 166 170 175 163 163 155 149 139 133 131 136 133 131 115 115 107 87 74 77 73 79 77 79 113 142 134 198 283 296 322 317 312 304 312 308 308 310
144 159 170 152 143 148 150 144 134 138 143 137 131 117 114 119 122 108 104 104 89 59 85 122 138 145 242 229 217 284 281 282 311 307 300 303 302 294
140 147 138 135 142 149 127 128 128 135 132 128 129 131 134 127 120 114 105 82 107 123 6 284 297 305 251 241 274 246 267 276 277 287 308 302 297 291
150 154 147 149 149 146 144 136 135 129 128 129 136 142 142 137 129 115 98 105 112 100 106 342 10 354 353 316 222 259 242 262 291 303 299 298 300 302
164 172 168 163 155 148 143 142 130 126 127 132 139 140 136 142 142 140 122 110 108 126 194 74 61 91 25 303 280 304 170 305 303 303 292 288 289 295
139 163 164 156 148 143 135 129 124 127 127 133 131 134 138 138 141 142 139 132 126 121 24 356 58 142 155 249 305 260 286 278 288 296 303 297 282 287
143 139 145 144 141 138 134 132 133 134 133 132 131 136 136 138 140 141 147 152 141 105 75 286 237 290 183 44 330 294 296 303 303 293 298 299 300 293
142 141 142 141 139 138 135 133 136 136 132 131 130 128 128 129 135 136 133 124 112 132 204 259 292 317 116 209 280 287 303 313 317 309 305 290 242 302
137 137 140 139 140 141 139 136 131 130 130 131 131 135 139 139 136 127 133 140 135 162 199 281 300 310 252 206 307 307 298 302 305 322 318 313 298 298